Date String (YYYY-MM-DD hh:mm:ss) UTC,Instrument flags,absolute air pressure of the measurement (hPa),sample flow rate (lpm),inlet stack bypass flow (lpm),air temperature of the measurement (°C),ambient temperature measured by the external sensor (°C),aerosol sample conditioner tube jacket temperature (°C),OPC LED temperature (°C),internal box temperature (°C),relative humidity of the measurement (%),span deviation,mass concentration of particles derived from Lorenz-Mie calculation of OPC scattering (μg/m³),mass concentration of particles derived from Lorenz-Mie calculation of OPC scattering (μg/m³),mass concentration of particles derived from Lorenz-Mie calculation of OPC scattering (μg/m³)
DateTimeUTC,F1_M11,P_M11,Q1_M11,Q2_M11,T1_M11,T2_M11,T3_M11,T4_M11,T5_M11,U1_M11,ZSPAN_M11,X2_M11,X0_M11,X1_M11
2023-06-20 23:00:00,SystemResetWarning,0828.5,5.01,000.00,029.3,026.3,000.0,037.8,030.9,19.5,0000.0,0005.77,0024.67,0003.84
2023-06-20 23:01:00,SystemResetWarning,0828.5,4.98,000.00,029.3,026.8,000.0,037.8,031.0,19.6,0000.0,0005.69,0023.93,0003.85
2023-06-20 23:02:00,SystemResetWarning,0828.5,5.00,000.00,029.4,027.2,000.0,037.8,031.1,20.8,0000.0,0005.66,0022.21,0003.84
2023-06-20 23:03:00,SystemResetWarning,0828.5,5.01,000.00,029.4,027.5,000.0,037.9,031.1,21.9,0000.0,0005.66,0022.76,0003.85
2023-06-20 23:04:00,SystemResetWarning,0828.5,5.00,000.00,029.5,027.8,000.0,037.9,031.2,18.3,0000.0,0005.68,0021.59,0003.86
2023-06-20 23:05:00,SystemResetWarning,0828.5,4.98,000.00,029.5,028.0,000.0,037.9,031.3,18.9,0000.0,0005.69,0020.67,0003.88
2023-06-20 23:06:00,SystemResetWarning,0828.5,5.00,000.00,029.5,026.6,000.0,037.9,031.1,20.4,0000.0,0005.64,0019.65,0003.90
2023-06-20 23:07:00,SystemResetWarning,0828.6,5.01,000.00,029.5,025.6,000.0,037.8,031.1,19.3,0000.0,0005.60,0019.61,0003.92
2023-06-20 23:08:00,SystemResetWarning,0828.5,5.01,000.00,029.5,025.9,000.0,037.8,031.0,20.4,0000.0,0005.61,0020.24,0003.93
2023-06-20 23:09:00,SystemResetWarning,0828.5,4.99,000.00,029.4,026.2,000.0,037.9,030.9,20.3,0000.0,0005.63,0019.88,0003.92
2023-06-20 23:10:00,SystemResetWarning,0828.5,5.00,000.00,029.4,026.6,000.0,037.9,031.0,22.0,0000.0,0005.57,0019.28,0003.90
2023-06-20 23:11:00,SystemResetWarning,0828.5,5.00,000.00,029.5,027.0,000.0,037.9,031.1,20.3,0000.0,0005.57,0019.71,0003.90
2023-06-20 23:12:00,SystemResetWarning,0828.6,5.01,000.00,029.5,027.4,000.0,037.9,031.1,22.1,0000.0,0005.62,0020.25,0003.90
2023-06-20 23:13:00,SystemResetWarning,0828.5,4.98,000.00,029.5,027.7,000.0,037.9,031.2,19.7,0000.0,0005.67,0020.02,0003.92
2023-06-20 23:14:00,SystemResetWarning,0828.5,4.99,000.00,029.6,027.4,000.0,037.9,031.3,20.1,0000.0,0005.70,0019.48,0003.91
2023-06-20 23:15:00,SystemResetWarning,0828.5,5.00,000.00,029.6,025.4,000.0,037.9,031.1,21.6,0000.0,0005.80,0020.87,0003.93
2023-06-20 23:16:00,SystemResetWarning,0828.5,5.00,000.00,029.5,024.4,000.0,037.8,031.0,20.5,0000.0,0005.83,0022.44,0003.93
2023-06-20 23:17:00,SystemResetWarning,0828.4,5.01,000.00,029.5,024.8,000.0,037.8,030.9,20.3,0000.0,0005.87,0022.86,0003.93
2023-06-20 23:18:00,SystemResetWarning,0828.4,5.01,000.00,029.4,025.3,000.0,037.8,030.8,22.0,0000.0,0005.92,0022.92,0003.94
2023-06-20 23:19:00,SystemResetWarning,0828.4,4.99,000.00,029.3,025.9,000.0,037.8,030.8,22.6,0000.0,0005.98,0022.08,0003.97
2023-06-20 23:20:00,SystemResetWarning,0828.4,5.00,000.00,029.3,026.4,000.0,037.8,030.9,22.0,0000.0,0006.05,0023.75,0004.01
2023-06-20 23:21:00,SystemResetWarning,0828.4,5.00,000.00,029.4,026.8,000.0,037.9,030.9,22.0,0000.0,0006.08,0024.34,0004.04
2023-06-20 23:22:00,SystemResetWarning,0828.4,4.99,000.00,029.4,027.2,000.0,037.9,031.0,22.0,0000.0,0006.13,0024.59,0004.08
2023-06-20 23:23:00,SystemResetWarning,0828.4,4.99,000.00,029.4,027.5,000.0,037.9,031.1,21.4,0000.0,0006.16,0026.07,0004.11
2023-06-20 23:24:00,SystemResetWarning,0828.4,5.00,000.00,029.5,027.8,000.0,037.9,031.2,22.3,0000.0,0006.21,0027.58,0004.14
2023-06-20 23:25:00,SystemResetWarning,0828.4,5.00,000.00,029.5,027.7,000.0,037.9,031.3,23.7,0000.0,0006.25,0028.26,0004.18
2023-06-20 23:26:00,SystemResetWarning,0828.4,5.00,000.00,029.5,026.0,000.0,037.9,031.2,23.1,0000.0,0006.27,0027.28,0004.22
2023-06-20 23:27:00,SystemResetWarning,0828.4,5.01,000.00,029.5,025.6,000.0,037.8,031.2,23.5,0000.0,0006.31,0025.67,0004.26
2023-06-20 23:28:00,SystemResetWarning,0828.4,5.01,000.00,029.5,025.9,000.0,037.8,031.0,24.1,0000.0,0006.41,0027.19,0004.31
2023-06-20 23:29:00,SystemResetWarning,0828.4,4.98,000.00,029.4,026.3,000.0,037.9,030.9,24.6,0000.0,0006.50,0027.81,0004.35
2023-06-20 23:30:00,SystemResetWarning,0828.4,5.00,000.00,029.4,026.7,000.0,037.9,031.0,24.3,0000.0,0006.50,0028.72,0004.37
2023-06-20 23:31:00,SystemResetWarning,0828.4,5.01,000.00,029.5,027.1,000.0,037.9,031.1,25.0,0000.0,0006.44,0027.61,0004.39
2023-06-20 23:32:00,SystemResetWarning,0828.4,5.01,000.00,029.5,027.5,000.0,037.9,031.2,26.0,0000.0,0006.46,0026.76,0004.43
2023-06-20 23:33:00,SystemResetWarning,0828.4,4.98,000.00,029.5,027.8,000.0,038.0,031.3,25.3,0000.0,0006.51,0026.38,0004.45
2023-06-20 23:34:00,SystemResetWarning,0828.4,5.00,000.00,029.6,026.9,000.0,037.9,031.3,25.1,0000.0,0006.63,0026.36,0004.49
2023-06-20 23:35:00,SystemResetWarning,0828.4,4.99,000.00,029.6,025.5,000.0,037.9,031.2,26.0,0000.0,0006.66,0026.12,0004.54
2023-06-20 23:36:00,SystemResetWarning,0828.4,5.01,000.00,029.5,025.7,000.0,037.9,031.2,26.5,0000.0,0006.74,0026.34,0004.57
2023-06-20 23:37:00,SystemResetWarning,0828.4,5.01,000.00,029.5,026.0,000.0,037.9,031.0,26.6,0000.0,0006.83,0027.01,0004.59
2023-06-20 23:38:00,SystemResetWarning,0828.4,4.99,000.00,029.5,026.5,000.0,037.9,031.0,26.3,0000.0,0006.88,0027.45,0004.62
2023-06-20 23:39:00,SystemResetWarning,0828.4,5.00,000.00,029.5,026.9,000.0,037.9,031.1,27.3,0000.0,0006.86,0026.80,0004.66
2023-06-20 23:40:00,SystemResetWarning,0828.4,5.01,000.00,029.5,027.3,000.0,038.0,031.1,24.6,0000.0,0006.97,0027.04,0004.70
2023-06-20 23:41:00,SystemResetWarning,0828.4,5.00,000.00,029.5,027.6,000.0,038.0,031.2,24.7,0000.0,0007.07,0027.09,0004.78
2023-06-20 23:42:00,SystemResetWarning,0828.4,5.00,000.00,029.6,027.7,000.0,038.0,031.3,26.2,0000.0,0007.18,0027.99,0004.84
2023-06-20 23:43:00,SystemResetWarning,0828.4,4.98,000.00,029.6,026.1,000.0,038.0,031.1,27.6,0000.0,0007.25,0029.90,0004.89
2023-06-20 23:44:00,SystemResetWarning,0828.4,5.02,000.00,029.5,024.6,000.0,037.9,031.0,27.3,0000.0,0007.36,0030.51,0004.94
2023-06-20 23:45:00,SystemResetWarning,0828.3,5.01,000.00,029.5,024.7,000.0,037.9,031.0,26.6,0000.0,0007.40,0030.15,0004.97
2023-06-20 23:46:00,SystemResetWarning,0828.3,4.99,000.00,029.4,025.2,000.0,037.9,030.8,24.9,0000.0,0007.39,0029.05,0005.00
2023-06-20 23:47:00,SystemResetWarning,0828.4,5.00,000.00,029.3,025.7,000.0,037.9,030.8,26.2,0000.0,0007.33,0028.09,0005.04
2023-06-20 23:48:00,SystemResetWarning,0828.4,5.01,000.00,029.3,026.2,000.0,037.9,030.9,26.8,0000.0,0007.24,0027.43,0005.06
2023-06-20 23:49:00,SystemResetWarning,0828.4,4.99,000.00,029.4,026.7,000.0,037.9,030.9,27.8,0000.0,0007.27,0028.02,0005.09
2023-06-20 23:50:00,SystemResetWarning,0828.4,5.01,000.00,029.4,027.1,000.0,037.9,031.0,28.0,0000.0,0007.29,0028.39,0005.11
2023-06-20 23:51:00,SystemResetWarning,0828.4,4.99,000.00,029.4,027.5,000.0,037.9,031.1,27.7,0000.0,0007.24,0028.24,0005.12
2023-06-20 23:52:00,SystemResetWarning,0828.4,4.99,000.00,029.5,027.8,000.0,037.9,031.2,27.5,0000.0,0007.26,0027.57,0005.12
2023-06-20 23:53:00,SystemResetWarning,0828.4,5.01,000.00,029.5,028.0,000.0,038.0,031.3,25.7,0000.0,0007.34,0026.69,0005.11
2023-06-20 23:54:00,SystemResetWarning,0828.5,5.00,000.00,029.6,027.7,000.0,038.0,031.3,25.5,0000.0,0007.42,0024.93,0005.12
2023-06-20 23:55:00,SystemResetWarning,0828.5,4.99,000.00,029.6,025.6,000.0,037.9,031.2,25.8,0000.0,0007.41,0023.81,0005.10
2023-06-20 23:56:00,SystemResetWarning,0828.5,5.01,000.00,029.5,024.5,000.0,037.9,031.1,25.9,0000.0,0007.37,0023.14,0005.08
2023-06-20 23:57:00,SystemResetWarning,0828.4,5.01,000.00,029.5,024.8,000.0,037.8,030.9,26.2,0000.0,0007.34,0024.23,0005.06
2023-06-20 23:58:00,SystemResetWarning,0828.5,5.00,000.00,029.4,025.3,000.0,037.8,030.7,26.0,0000.0,0007.34,0025.57,0005.03
2023-06-20 23:59:00,SystemResetWarning,0828.5,4.99,000.00,029.3,025.8,000.0,037.8,030.8,26.6,0000.0,0007.36,0027.12,0005.02
